Regional Weather Roundup
Issued by NWS

Home | Current Version | Previous Version | Text Only | Print | Product List | Glossary Off
Versions: 1 2 3 4 5 6 7 8 9 10 11 12 13 14 15 16 17 18 19 20 21 22 23 24 25 26 27 28 29 30 31 32 33 34 35 36 37 38 39 40 41 42 43 44 45 46 47 48 49 50

000
ASUS43 KLMK 021402
RWRKY
KENTUCKY REGIONAL WEATHER ROUNDUP
NATIONAL WEATHER SERVICE LOUISVILLE KY
900 AM EST FRI DEC 02 2016

NOTE "FAIR" INDICATES FEW OR NO CLOUDS BELOW 12,000 FEET
WITH NO SIGNIFICANT WEATHER AND/OR OBSTRUCTIONS TO VISIBILITY.

KYZ001>023-026-027-061>063-070>075-021500-
WESTERN AND SOUTH CENTRAL KENTUCKY

CITY           SKY/WX    TMP DP  RH WIND       PRES   REMARKS
PADUCAH        SUNNY     31  28  89 CALM      30.24R
HENDERSON      SUNNY     30  25  80 CALM      30.23R
OWENSBORO      MOSUNNY   31  30  96 CALM      30.24R
HOPKINSVILLE   SUNNY     33  29  86 CALM      30.23R
BOWLING GREEN  SUNNY     34  28  79 SW3       30.24R
GLASGOW        SUNNY     32  31  99 CALM      30.23R
$$

KYZ024-025-028>034-038-045-046-053-021500-
NORTH CENTRAL KENTUCKY

CITY           SKY/WX    TMP DP  RH WIND       PRES   REMARKS
LOUISVILLE/SDF MOSUNNY   33  28  81 SE3       30.22R
LOUISVILLE/LOU SUNNY     33  29  85 CALM      30.22R
FORT KNOX      SUNNY     29  27  92 CALM      30.20R
$$

KYZ035>037-039>044-047>052-055>060-089>105-021500-
NORTHEAST KENTUCKY

CITY           SKY/WX    TMP DP  RH WIND       PRES   REMARKS
LEXINGTON      SUNNY     33  28  81 CALM      30.20R
COVINGTON      CLOUDY    37  29  72 NW13      30.17R WCI  29
FRANKFORT      SUNNY     32  28  85 SW3       30.20R
$$

KYZ054-064>069-076>088-106>120-021500-
SOUTHEAST KENTUCKY

CITY           SKY/WX    TMP DP  RH WIND       PRES   REMARKS
JACKSON        SUNNY     34  28  79 VRB3      30.19R
LONDON         SUNNY     31  27  85 CALM      30.21R
SOMERSET       SUNNY     32  32 100 CALM      30.25R
MIDDLESBORO    FOG       28  28 100 CALM      30.24R VSB 1/4
MONTICELLO     SUNNY     35  32  88 W10       30.25R WCI  27
$$




USA.gov is the U.S. government's official web portal to all federal, state and local government web resources and services.